{"data":{"norad_id":49409,"intl_designator":"2021-104B","name":"STARLINK-3075","alt_names":[],"object_type":"PAYLOAD","status":"ACTIVE","operator":null,"country":"US","launch_date":"2021-11-13","launch_site_code":"AFETR","launch_vehicle":null,"mission":null,"orbit_class":"UNKNOWN","rcs_meters":null,"size_class":null,"mass_kg":null,"dimensions":null,"purposes":["comms"],"wikipedia_slug":null,"has_3d_model":false,"image_url":null,"decayed_at":null,"tle_current":{"epoch":"2026-09-20T03:32:39.623712Z","epoch_age_seconds":71663,"freshness":"FRESH","line1":"1 49409U 21104B   26263.14768083  .00000588  00000+0  29218-4 0  9996","line2":"2 49409  53.1599  61.5474 0001083  88.2200 271.8926 15.33548687268190","mean_motion":15.33548687,"eccentricity":0.0001083,"inclination_deg":53.1599,"raan_deg":61.5474,"arg_perigee_deg":88.22,"mean_anomaly_deg":271.8926,"bstar":2.9218e-5,"rev_number":26819,"period_min":93.899855427283,"perigee_km":464.49355514401,"apogee_km":465.97582945256,"semimajor_km":6843.3716922983,"source":"CELESTRAK","updated_at":"2026-09-20T09:00:39.255252Z"}}}